Regional Weather Roundup
Issued by NWS Jackson, KY

Home | Current Version | Previous Version | Text Only | Print | Product List | Glossary On
Versions: 1 2 3 4 5 6 7 8 9 10 11 12 13 14 15 16 17 18 19 20 21 22 23 24 25 26 27 28 29 30 31 32 33 34 35 36 37 38 39 40 41 42 43 44 45 46 47 48 49 50
000
ASUS43 KJKL 301010
RWRJKL

EAST KENTUCKY HOURLY WEATHER ROUNDUP
NATIONAL WEATHER SERVICE JACKSON KY
600 AM EDT SUN AUG 30 2015

NOTE: "FAIR" INDICATES FEW OR NO CLOUDS BELOW 12,000 FEET WITH
NO SIGNIFICANT WEATHER AND/OR OBSTRUCTIONS TO VISIBILITY.

* THESE REPORTS ARE NOT UNDER NWS QUALITY CONTROL AND MAY NOT
  REPORT WEATHER SUCH AS PRECIPITATION AND FOG.

KYZ079-080-083-085-087-088-110-112-115-119-120-301100
...EASTERN KENTUCKY...

CITY           SKY/WX    TMP DP  RH WIND       PRES   REMARKS
JACKSON        CLEAR     66  63  90 CALM      30.15R
LONDON         MOCLDY    66  62  87 CALM      30.14S
SOMERSET*      CLOUDY    66  66 100 CALM      30.14R
MONTICELLO*    CLOUDY    67  67 100 CALM      30.15R
WILLIAMSBURG*  CLEAR     64  64 100 CALM      30.15
MIDDLESBORO*   CLOUDY    63  63 100 CALM      30.17R
HARLAN APT*      N/A     63  63 100 MISG      30.18R
HAZARD APT*    SUNNY     63  63 100 CALM      30.15S
BLACK MTN*       N/A     63  59  88 NE2         N/A
PIKEVILLE APT* CLEAR     66  63  88 S3        30.16R
BIG SANDY*     CLOUDY    68  64  86 S3        30.15R
MOREHEAD APT*  PTSUNNY   68  64  88 CALM      30.14S
$$

KYZ035-036-041-042-044-050-067-078-099-301100
...CENTRAL KENTUCKY...

CITY           SKY/WX    TMP DP  RH WIND       PRES   REMARKS
MT STERLING*   PTCLDY    68  66  94 W5        30.14R
FLEMING/MASON* CLEAR     66  64  94 S6        30.12S
DANVILLE*      PTCLDY    64  64 100 CALM      30.13R
RICHMOND*      MOCLDY    68  64  88 CALM      30.12S
LEXINGTON      CLEAR     68  64  87 S5        30.11S
FRANKFORT      CLEAR     67  65  93 S5        30.10R
$$

KYZ091>093-OHZ055-061-077-WVZ005-015-034-035-042-301100
...SOUTHERN OHIO/WEST VIRGINIA...

CITY           SKY/WX    TMP DP  RH WIND       PRES   REMARKS
COVINGTON      PTCLDY    67  65  93 CALM      30.09R
COLUMBUS       MOCLDY    67  65  93 S3        30.08R
DAYTON         CLOUDY    67  67 100 SE8       30.08S THUNDER
WILMINGTON     CLOUDY    65  63  93 SE5       30.10R
HUNTINGTON     MOCLDY    68  65  90 CALM      30.12R
CHARLESTON     MOCLDY    62  61  96 CALM      30.13R
PINEVILLE*     MOCLDY    62  62 100 MISG      30.24R
BECKLEY        CLOUDY    65  57  75 S3        30.21R
BLUEFIELD      CLOUDY    67  56  67 SW3       30.24R
$$

VAZ002-007-008-TNZ017-027-036-066-071-301100
...SOUTHWEST VIRGINIA/EAST TENNESSEE...

CITY           SKY/WX    TMP DP  RH WIND       PRES   REMARKS
WISE*          CLOUDY    66  57  72 CALM      30.23R
JONESVILLE*    CLOUDY    63  63 100 CALM      30.19R
ABINGDON*      CLOUDY    67  61  79 CALM      30.20R
BRISTOL        CLOUDY    65  63  93 CALM      30.17R
KNOXVILLE      CLOUDY    71  67  87 CALM      30.13R
OAK RIDGE      CLOUDY    71  67  87 CALM      30.15R
CROSSVILLE     CLOUDY    70  61  73 CALM      30.17R
NASHVILLE      MOCLDY    70  65  84 CALM      30.10R
$$

...KEY TO REMARKS...
VSB - VISIBILITY IN MILES
WCI - WIND CHILL INDEX
HX  - HEAT INDEX

$$


USA.gov is the U.S. government's official web portal to all federal, state and local government web resources and services.